User: anonymous   Login
Location: Unspecified
(0.0000°N, 0.0000°E)
Time: 23:56:11
(UTC+01:00)
Language:

ARIANE DEB (SPELDA) - Orbit

View from above orbital plane
View from above orbital plane
View from above satellite
View from above satellite

Ground track
Ground track

The orbit data is extracted from the following two-line orbital elements,

1 27402U 02015D   15056.51101112  .00001420  00000-0  16820-2 0  9998
2 27402 003.2612 136.1833 7100441 291.9146 075.0145 02.46359318113148
Epoch (UTC): 25 February 2015 12:15:51
Eccentricity: 0.7100441
inclination: 3.2612°
perigee height: 336 km
apogee height: 33221 km
right ascension of ascending node: 136.1833°
argument of perigee: 291.9146°
revolutions per day: 2.46359318
mean anomaly at epoch: 75.0145°
orbit number at epoch: 11314

The dashed part of the orbit path shows where the satellite is in the earth's shadow,  

DLR